DW3765 Weather Reports


Display with metric or nautical units.
time (UTC)temp
F
wind
direction
speed
MPH
gust
MPH
rain 1hr
in
rain 24hr
in
rain mn
in
humidity
%
barometer
mb
20260904102129 79 166 4.0 10.0 0.00 0.00 0.00 87 1013.9
20260904101654 79 182 3.0 10.0 0.00 0.00 0.00 87 1013.9
20260904100632 78 216 4.0 10.0 0.00 0.00 0.00 87 1014.0
20260904100157 78 173 5.0 10.0 0.00 0.00 0.00 88 1014.0
20260904095713 78 158 5.0 9.0 0.00 0.00 0.00 88 1013.9
20260904095222 78 170 2.0 6.0 0.00 0.00 0.00 88 1013.8
20260904094718 78 160 3.0 6.0 0.00 0.00 0.00 88 1014.0
20260904094220 78 183 3.0 6.0 0.00 0.00 0.00 88 1014.1
20260904093718 78 177 2.0 7.0 0.00 0.00 0.00 88 1013.9
20260904093212 78 184 4.0 7.0 0.00 0.00 0.00 88 1013.9
20260904092626 78 155 4.0 7.0 0.00 0.00 0.00 88 1013.8
20260904092152 78 151 3.0 7.0 0.00 0.00 0.00 88 1013.8
20260904091150 78 167 3.0 5.0 0.00 0.00 0.00 88 1013.9
20260904090704 78 184 2.0 6.0 0.00 0.00 0.00 88 1014.0
20260904090215 78 180 2.0 6.0 0.00 0.00 0.00 87 1013.9
20260904085630 78 148 3.0 6.0 0.00 0.00 0.00 87 1014.0
20260904085147 78 192 2.0 6.0 0.00 0.00 0.00 87 1013.9
20260904084639 78 198 2.0 6.0 0.00 0.00 0.00 87 1013.9
20260904084210 78 171 2.0 7.0 0.00 0.00 0.00 87 1013.8
20260904083721 79 167 4.0 7.0 0.00 0.00 0.00 86 1013.8
20260904083138 79 142 2.0 6.0 0.00 0.00 0.00 86 1013.8
20260904082655 79 165 4.0 6.0 0.00 0.00 0.00 86 1013.9
20260904082219 79 149 3.0 6.0 0.00 0.00 0.00 86 1014.0
20260904081730 79 159 4.0 9.0 0.00 0.00 0.00 86 1014.0
20260904081211 79 165 4.0 9.0 0.00 0.00 0.00 85 1014.1
20260904080706 79 150 6.0 8.0 0.00 0.00 0.00 85 1014.1
20260904075634 79 173 4.0 10.0 0.00 0.00 0.00 85 1014.1
20260904075145 79 167 5.0 10.0 0.00 0.00 0.00 85 1014.1
20260904074222 80 167 6.0 11.0 0.00 0.00 0.00 84 1014.2
20260904073631 80 175 6.0 12.0 0.00 0.00 0.00 84 1014.1
20260904073150 80 163 5.0 12.0 0.00 0.00 0.00 84 1014.2
20260904072137 80 178 4.0 10.0 0.00 0.00 0.00 83 1014.2
20260904071720 80 160 6.0 14.0 0.00 0.00 0.00 83 1014.3
20260904071213 80 146 7.0 14.0 0.00 0.00 0.00 83 1014.4
20260904070713 80 166 8.0 13.0 0.00 0.00 0.00 83 1014.4
20260904070151 80 136 7.0 13.0 0.00 0.00 0.00 83 1014.5
20260904065626 80 139 5.0 11.0 0.00 0.00 0.00 83 1014.5
20260904065132 80 170 5.0 8.0 0.00 0.00 0.00 83 1014.5
20260904064641 80 166 4.0 11.0 0.00 0.00 0.00 83 1014.5
20260904064149 80 190 6.0 11.0 0.00 0.00 0.00 83 1014.6
20260904063627 80 150 6.0 11.0 0.00 0.00 0.00 84 1014.6
20260904063135 80 173 5.0 13.0 0.00 0.00 0.00 84 1014.6
20260904062643 80 195 7.0 12.0 0.00 0.00 0.00 84 1014.5
20260904062137 80 175 5.0 12.0 0.00 0.00 0.00 83 1014.5
20260904061625 80 134 4.0 12.0 0.00 0.00 0.00 83 1014.5
20260904061132 80 196 5.0 10.0 0.00 0.00 0.00 83 1014.5
20260904060641 80 163 5.0 11.0 0.00 0.00 0.00 83 1014.5
20260904060139 80 135 6.0 11.0 0.00 0.00 0.00 83 1014.5
20260904055627 80 180 5.0 11.0 0.00 0.00 0.00 82 1014.5
20260904055134 80 141 7.0 11.0 0.00 0.00 0.00 82 1014.5
20260904054633 80 179 6.0 10.0 0.00 0.00 0.00 82 1014.5
20260904054134 80 177 7.0 12.0 0.00 0.00 0.00 82 1014.5
20260904053623 80 145 5.0 15.0 0.00 0.00 0.00 81 1014.4
20260904053146 81 170 6.0 15.0 0.00 0.00 0.00 80 1014.4
20260904052626 81 148 9.0 13.0 0.00 0.00 0.00 80 1014.3
20260904052150 81 189 7.0 15.0 0.00 0.00 0.00 80 1014.3
20260904051637 81 143 7.0 15.0 0.00 0.00 0.00 79 1014.2
20260904051125 81 153 8.0 18.0 0.00 0.00 0.00 79 1014.2
20260904050624 81 148 8.0 18.0 0.00 0.00 0.00 78 1014.1
20260904050127 81 148 8.0 15.0 0.00 0.00 0.00 78 1014.2
20260904045630 82 205 6.0 15.0 0.00 0.00 0.00 77 1014.2
20260904045233 82 160 8.0 15.0 0.00 0.00 0.00 77 1014.2
20260904044709 82 165 8.0 16.0 0.00 0.00 0.00 77 1014.2
20260904044159 82 88 10.0 16.0 0.00 0.00 0.00 76 1014.1
20260904043723 82 136 7.0 18.0 0.00 0.00 0.00 76 1014.1
20260904043203 82 136 10.0 18.0 0.00 0.00 0.00 76 1014.1
20260904042659 82 165 7.0 16.0 0.00 0.00 0.00 75 1014.1
20260904042211 83 153 6.0 13.0 0.00 0.00 0.00 74 1014.1
20260904041718 83 149 8.0 13.0 0.00 0.00 0.00 74 1014.1
20260904041213 83 138 6.0 13.0 0.00 0.00 0.00 73 1014.0
20260904040157 83 135 8.0 19.0 0.00 0.00 0.00 72 1014.2
20260904035712 83 138 8.0 19.0 0.00 0.00 0.00 71 1014.1
20260904035237 84 132 9.0 15.0 0.00 0.00 0.00 71 1014.1
20260904034654 84 160 5.0 14.0 0.00 0.00 0.00 70 1014.0
20260904034217 84 144 7.0 13.0 0.00 0.00 0.00 69 1013.8
20260904033139 84 130 8.0 12.0 0.00 0.00 0.00 68 1013.7
20260904032703 84 146 6.0 11.0 0.00 0.00 0.00 68 1013.6
20260904032219 84 150 7.0 13.0 0.00 0.00 0.00 68 1013.5
20260904031145 84 132 9.0 14.0 0.00 0.00 0.00 67 1013.5
20260904030636 85 138 8.0 13.0 0.00 0.00 0.00 67 1013.4
20260904030154 85 170 6.0 13.0 0.00 0.00 0.00 67 1013.3
20260904025704 85 120 7.0 12.0 0.00 0.00 0.00 67 1013.3
20260904025217 85 111 6.0 12.0 0.00 0.00 0.00 67 1013.2
20260904024730 85 126 7.0 15.0 0.00 0.00 0.00 66 1013.1
20260904024209 85 124 8.0 15.0 0.00 0.00 0.00 66 1013.1
20260904023722 85 76 8.0 15.0 0.00 0.00 0.00 66 1013.0
20260904023202 85 144 8.0 15.0 0.00 0.00 0.00 66 1013.0
20260904022623 85 119 6.0 12.0 0.00 0.00 0.00 65 1012.9
20260904022222 85 132 9.0 12.0 0.00 0.00 0.00 65 1012.9
20260904021628 86 119 4.0 11.0 0.00 0.00 0.00 65 1012.8
20260904021127 86 141 7.0 11.0 0.00 0.00 0.00 64 1012.6
20260904020732 86 139 7.0 12.0 0.00 0.00 0.00 64 1012.6
20260904020132 86 107 7.0 20.0 0.00 0.00 0.00 63 1012.6
20260904015648 86 75 9.0 20.0 0.00 0.00 0.00 63 1012.5
20260904015146 86 92 8.0 13.0 0.00 0.00 0.00 62 1012.5
20260904014703 86 146 5.0 16.0 0.00 0.00 0.00 62 1012.3
20260904014214 87 128 8.0 18.0 0.00 0.00 0.00 61 1012.3
20260904013702 87 111 9.0 18.0 0.00 0.00 0.00 61 1012.4
20260904013220 87 116 10.0 21.0 0.00 0.00 0.00 60 1012.3
20260904012637 87 121 10.0 21.0 0.00 0.00 0.00 60 1012.1
20260904012146 87 119 9.0 19.0 0.00 0.00 0.00 61 1012.1
20260904011136 87 142 9.0 16.0 0.00 0.00 0.00 63 1012.1
20260904010644 87 169 5.0 11.0 0.00 0.00 0.00 64 1011.9
20260904010207 87 101 6.0 15.0 0.00 0.00 0.00 63 1011.8
20260904005704 87 109 9.0 18.0 0.00 0.00 0.00 63 1011.8
20260904005125 87 94 9.0 20.0 0.00 0.00 0.00 63 1011.8
20260904004642 88 90 12.0 20.0 0.00 0.00 0.00 62 1011.9
20260904004135 88 76 10.0 20.0 0.00 0.00 0.00 61 1011.8
20260904003656 88 93 8.0 19.0 0.00 0.00 0.00 61 1011.6
20260904002638 89 64 11.0 22.0 0.00 0.00 0.00 59 1011.5
20260904002200 89 57 12.0 23.0 0.00 0.00 0.00 58 1011.4
20260904001717 90 105 9.0 26.0 0.00 0.00 0.00 56 1011.4
20260904001129 91 104 14.0 25.0 0.00 0.00 0.00 54 1011.4
20260904000655 92 23 11.0 20.0 0.00 0.00 0.00 52 1011.3
20260904000211 93 82 6.0 20.0 0.00 0.00 0.00 51 1011.2
20260903235219 94 130 9.0 18.0 0.00 0.00 0.00 48 1011.2
20260903234633 94 98 10.0 19.0 0.00 0.00 0.00 48 1011.1
20260903234149 94 122 8.0 18.0 0.00 0.00 0.00 47 1011.1
20260903233650 94 51 9.0 18.0 0.00 0.00 0.00 46 1011.1
20260903233144 94 85 9.0 16.0 0.00 0.00 0.00 46 1011.1
20260903232656 94 86 12.0 16.0 0.00 0.00 0.00 47 1011.0
20260903232216 94 130 8.0 18.0 0.00 0.00 0.00 48 1011.0
20260903231630 94 125 10.0 19.0 0.00 0.00 0.00 47 1011.0
20260903231142 95 77 11.0 20.0 0.00 0.00 0.00 47 1010.9
20260903230706 95 88 9.0 20.0 0.00 0.00 0.00 46 1010.9
20260903230201 95 90 10.0 19.0 0.00 0.00 0.00 46 1010.9
20260903225723 95 128 9.0 19.0 0.00 0.00 0.00 46 1010.9
20260903225151 96 109 12.0 19.0 0.00 0.00 0.00 45 1010.9
20260903224215 96 125 8.0 18.0 0.00 0.00 0.00 46 1010.7
20260903223710 96 68 8.0 20.0 0.00 0.00 0.00 46 1010.7
20260903223211 96 71 9.0 20.0 0.00 0.00 0.00 45 1010.7
20260903222722 97 124 12.0 20.0 0.00 0.00 0.00 44 1010.7
20260903222208 98 82 9.0 14.0 0.00 0.00 0.00 44 1010.6
20260903221719 98 119 9.0 15.0 0.00 0.00 0.00 43 1010.7
20260903221153 98 166 9.0 15.0 0.00 0.00 0.00 41 1010.6
20260903220124 98 103 6.0 11.0 0.00 0.00 0.00 42 1010.6
20260903215642 98 124 6.0 14.0 0.00 0.00 0.00 43 1010.7
20260903215156 98 94 9.0 14.0 0.00 0.00 0.00 42 1010.8
20260903214718 98 103 7.0 15.0 0.00 0.00 0.00 42 1010.9
20260903214128 98 134 9.0 15.0 0.00 0.00 0.00 42 1010.8
20260903213643 99 176 5.0 12.0 0.00 0.00 0.00 42 1010.8
20260903212630 99 263 4.0 9.0 0.00 0.00 0.00 41 1010.9
20260903212144 99 53 5.0 11.0 0.00 0.00 0.00 39 1011.0
20260903211654 99 104 7.0 11.0 0.00 0.00 0.00 40 1011.1
20260903211212 99 81 3.0 8.0 0.00 0.00 0.00 40 1011.2
20260903210712 99 32 4.0 9.0 0.00 0.00 0.00 40 1011.2
20260903210151 99 56 3.0 7.0 0.00 0.00 0.00 42 1011.3
20260903205704 98 28 2.0 10.0 0.00 0.00 0.00 43 1011.3
20260903205125 98 98 7.0 10.0 0.00 0.00 0.00 42 1011.4
20260903204742 98 115 7.0 11.0 0.00 0.00 0.00 42 1011.4
20260903204134 98 115 4.0 8.0 0.00 0.00 0.00 45 1011.5
20260903203657 98 111 5.0 8.0 0.00 0.00 0.00 44 1011.6
20260903202637 98 196 4.0 11.0 0.00 0.00 0.00 45 1011.9
20260903202200 98 86 4.0 11.0 0.00 0.00 0.00 45 1011.9
20260903201717 98 115 6.0 11.0 0.00 0.00 0.00 45 1012.0
20260903201214 98 123 5.0 9.0 0.00 0.00 0.00 44 1012.0
20260903200719 98 114 4.0 8.0 0.00 0.00 0.00 47 1012.0
20260903200217 98 175 3.0 7.0 0.00 0.00 0.00 45 1012.0
20260903195722 98 80 3.0 7.0 0.00 0.00 0.00 45 1012.1
20260903195133 96 144 1.0 10.0 0.00 0.00 0.00 45 1012.1
20260903194644 96 103 4.0 10.0 0.00 0.00 0.00 47 1012.2
20260903193638 96 53 4.0 9.0 0.00 0.00 0.00 46 1012.3
20260903193153 96 164 4.0 12.0 0.00 0.00 0.00 47 1012.3
20260903192144 95 202 8.0 15.0 0.00 0.00 0.00 48 1012.5
20260903191703 96 163 3.0 11.0 0.00 0.00 0.00 48 1012.6
20260903190638 95 187 5.0 11.0 0.00 0.00 0.00 48 1012.8
20260903190205 95 215 3.0 10.0 0.00 0.00 0.00 50 1012.8
20260903185715 95 197 4.0 10.0 0.00 0.00 0.00 49 1013.1
20260903184633 95 196 7.0 11.0 0.00 0.00 0.00 49 1013.3
20260903184157 94 117 6.0 11.0 0.00 0.00 0.00 49 1013.4
20260903183714 94 194 5.0 11.0 0.00 0.00 0.00 52 1013.5
20260903183137 93 140 5.0 11.0 0.00 0.00 0.00 51 1013.5
20260903182738 93 234 4.0 11.0 0.00 0.00 0.00 52 1013.5
20260903182208 93 202 6.0 11.0 0.00 0.00 0.00 51 1013.7
20260903181700 93 136 7.0 12.0 0.00 0.00 0.00 53 1013.9
20260903181212 93 160 6.0 12.0 0.00 0.00 0.00 53 1013.8
20260903180706 92 142 6.0 13.0 0.00 0.00 0.00 54 1013.9
20260903180212 92 91 6.0 13.0 0.00 0.00 0.00 57 1013.9
20260903175715 92 152 7.0 16.0 0.00 0.00 0.00 55 1014.0
20260903175214 92 157 6.0 11.0 0.00 0.00 0.00 54 1014.0
20260903174708 92 224 5.0 16.0 0.00 0.00 0.00 55 1014.0
20260903174151 92 94 8.0 16.0 0.00 0.00 0.00 56 1014.1
20260903173702 92 216 6.0 12.0 0.00 0.00 0.00 57 1014.2
20260903173210 91 196 6.0 13.0 0.00 0.00 0.00 59 1014.3
20260903172631 91 194 8.0 13.0 0.00 0.00 0.00 58 1014.3
20260903172146 91 128 5.0 11.0 0.00 0.00 0.00 61 1014.4
20260903171702 91 146 5.0 11.0 0.00 0.00 0.00 62 1014.4
20260903171125 90 135 8.0 11.0 0.00 0.00 0.00 60 1014.5
20260903170639 90 167 7.0 11.0 0.00 0.00 0.00 60 1014.6
20260903170201 90 215 4.0 12.0 0.00 0.00 0.00 63 1014.6
20260903165719 89 190 5.0 12.0 0.00 0.00 0.00 63 1014.7
20260903165134 89 159 5.0 14.0 0.00 0.00 0.00 63 1014.7
20260903164657 88 174 8.0 14.0 0.00 0.00 0.00 64 1014.8
20260903164215 88 164 6.0 11.0 0.00 0.00 0.00 66 1014.8
20260903163634 88 138 7.0 11.0 0.00 0.00 0.00 64 1014.9
20260903163152 88 181 6.0 13.0 0.00 0.00 0.00 66 1014.9
20260903162718 87 152 5.0 13.0 0.00 0.00 0.00 68 1014.8
20260903162128 87 194 6.0 11.0 0.00 0.00 0.00 68 1015.0
20260903161640 87 218 5.0 11.0 0.00 0.00 0.00 68 1014.9
20260903161201 87 131 5.0 14.0 0.00 0.00 0.00 69 1015.0
20260903160138 87 171 6.0 12.0 0.00 0.00 0.00 70 1014.9
20260903155703 87 215 8.0 12.0 0.00 0.00 0.00 70 1014.9
20260903155220 86 216 7.0 12.0 0.00 0.00 0.00 71 1014.8
20260903154628 86 236 7.0 13.0 0.00 0.00 0.00 71 1014.8
20260903154155 86 215 7.0 14.0 0.00 0.00 0.00 70 1014.8
20260903153652 86 246 5.0 14.0 0.00 0.00 0.00 72 1014.8
20260903153147 85 208 8.0 14.0 0.00 0.00 0.00 71 1014.8
20260903152709 85 201 9.0 14.0 0.00 0.00 0.00 72 1014.8
20260903152222 85 215 9.0 14.0 0.00 0.00 0.00 71 1014.8
20260903151634 85 187 5.0 13.0 0.00 0.00 0.00 73 1014.8
20260903151156 85 182 6.0 12.0 0.00 0.00 0.00 73 1014.8
20260903150712 85 223 6.0 13.0 0.00 0.00 0.00 73 1014.8
20260903145636 84 209 5.0 11.0 0.00 0.00 0.00 76 1014.8
20260903145152 83 218 7.0 18.0 0.00 0.00 0.00 76 1015.0
20260903144139 83 218 8.0 15.0 0.00 0.00 0.00 77 1015.0
20260903143642 83 209 7.0 14.0 0.00 0.00 0.00 78 1014.8
20260903143207 82 177 7.0 14.0 0.00 0.00 0.00 79 1014.8
20260903142703 82 189 7.0 14.0 0.00 0.00 0.00 79 1015.0
20260903142211 82 191 6.0 18.0 0.00 0.00 0.00 79 1015.0
20260903141625 82 169 7.0 15.0 0.00 0.00 0.00 80 1015.0
20260903141128 82 246 7.0 14.0 0.00 0.00 0.00 80 1015.0
20260903140648 82 209 5.0 13.0 0.00 0.00 0.00 81 1015.0
20260903140150 82 209 7.0 12.0 0.00 0.00 0.00 81 1015.1
20260903135627 81 205 5.0 12.0 0.00 0.00 0.00 82 1015.0
20260903135141 81 202 5.0 10.0 0.00 0.00 0.00 83 1015.1
20260903134704 81 190 3.0 9.0 0.00 0.00 0.00 84 1015.2
20260903134137 80 161 3.0 8.0 0.00 0.00 0.00 85 1015.2
20260903133648 80 175 4.0 8.0 0.00 0.00 0.00 85 1015.1
20260903132625 80 186 5.0 8.0 0.00 0.00 0.00 85 1015.2
20260903132136 79 213 4.0 9.0 0.00 0.00 0.00 85 1015.1
20260903131633 79 180 5.0 9.0 0.00 0.00 0.00 85 1015.2
20260903131134 79 223 4.0 8.0 0.00 0.00 0.00 85 1015.1
20260903130654 79 202 4.0 8.0 0.00 0.00 0.00 85 1015.1
20260903130131 79 192 5.0 12.0 0.00 0.00 0.00 85 1015.1
20260903125654 79 169 4.0 10.0 0.00 0.00 0.00 85 1015.0
20260903125152 79 183 5.0 10.0 0.00 0.00 0.00 85 1014.8
20260903124708 79 202 4.0 10.0 0.00 0.00 0.00 85 1014.8
20260903124128 79 194 5.0 10.0 0.00 0.00 0.00 85 1014.9
20260903123640 79 186 5.0 13.0 0.00 0.00 0.00 86 1014.8
20260903123206 79 178 5.0 13.0 0.00 0.00 0.00 86 1014.7
20260903122720 79 196 4.0 8.0 0.00 0.00 0.00 86 1014.7
20260903122128 79 211 5.0 10.0 0.00 0.00 0.00 86 1014.7
20260903121652 79 181 4.0 9.0 0.00 0.00 0.00 86 1014.6
20260903120639 79 173 4.0 6.0 0.00 0.00 0.00 87 1014.6
20260903120147 79 154 2.0 7.0 0.00 0.00 0.00 87 1014.6
20260903115658 79 198 4.0 8.0 0.00 0.00 0.00 87 1014.6
20260903115150 79 155 4.0 8.0 0.00 0.00 0.00 87 1014.6
20260903114135 79 154 2.0 8.0 0.00 0.00 0.00 87 1014.5
20260903113647 79 195 5.0 8.0 0.00 0.00 0.00 87 1014.5
20260903113207 79 185 4.0 12.0 0.00 0.00 0.00 87 1014.5
20260903112718 79 185 5.0 12.0 0.00 0.00 0.00 86 1014.4
20260903112129 79 178 5.0 11.0 0.00 0.00 0.00 86 1014.3
20260903111651 79 215 5.0 10.0 0.00 0.00 0.00 86 1014.3
20260903111206 79 213 5.0 11.0 0.00 0.00 0.00 86 1014.4
20260903110226 79 173 5.0 11.0 0.00 0.00 0.00 86 1014.3
20260903105721 79 173 6.0 12.0 0.00 0.00 0.00 86 1014.3
20260903105218 79 179 6.0 12.0 0.00 0.00 0.00 86 1014.3
20260903104627 79 183 6.0 14.0 0.00 0.00 0.00 86 1014.4
20260903104239 79 187 7.0 14.0 0.00 0.00 0.00 86 1014.4
20260903103628 79 140 7.0 13.0 0.00 0.00 0.00 86 1014.4
20260903103140 79 187 6.0 13.0 0.00 0.00 0.00 86 1014.4
20260903102703 79 170 8.0 13.0 0.00 0.00 0.00 87 1014.5
20260903102155 79 183 4.0 9.0 0.00 0.00 0.00 87 1014.3